Change the Weather History Date:

Tuesday, July 23, 2013

  Actual Average Record
Temperature  
Mean Temperature 60 °F -  
Max Temperature 72 °F 78 °F 97 °F (2012)
Min Temperature 47 °F 63 °F 47 °F (2013)
Degree Days  
Heating Degree Days 4    
Growing Degree Days 10 (Base 50)    
Moisture  
Dew Point 55 °F    
Average Humidity 73    
Maximum Humidity 100    
Minimum Humidity 53    
Precipitation  
Precipitation 0.00 in - - ()
Sea Level Pressure  
Sea Level Pressure 29.90 in    
Wind  
Wind Speed 9 mph (NNW)    
Max Wind Speed 15 mph    
Max Gust Speed 24 mph    
Visibility 10 miles    
Events      
Averages and records for this station are not official NWS values.
T = Trace of Precipitation, MM = Missing Value Source: NWS Daily Summary

Daily Weather History Graph

Daily Weather History Graph

Search for Another Location

Airport or City:

Trip Planner

Search our weather history database for the weather conditions in past years. The results will help you decide how hot, cold, wet, or windy it might be!

Date:

Astronomy

Jul. 23, 2013 Rise Set
Actual Time 5:40 AM CDT 8:34 PM CDT
Civil Twilight 5:06 AM CDT 9:08 PM CDT
Nautical Twilight 4:22 AM CDT 9:51 PM CDT
Astronomical Twilight 3:32 AM CDT 10:41 PM CDT
Moon 8:56 PM CDT (7/23) 6:53 AM CDT (7/23)
Length of Visible Light 16h 01m
Length of Day
14h 54m
Full, 99% of the Moon is Illuminated
Jul 23
Full
Jul 29
Last Quarter
Aug 6
New
Aug 14
First Quarter
Aug 20
Full

Hourly Weather History & Observations

Time (CDT) Temp. Dew Point Humidity Pressure Visibility Wind Dir Wind Speed Gust Speed Precip Events Conditions
12:58 AM 70.3 °F 65.7 °F 85% 29.76 in 10.0 mi NW 10.4 mph - N/A   Clear
1:33 AM 69.8 °F 60.8 °F 73% 29.78 in 10.0 mi NNW 10.4 mph - N/A   Mostly Cloudy
1:58 AM 68.7 °F 59.9 °F 73% 29.78 in 10.0 mi NNW 11.5 mph - N/A   Overcast
2:08 AM 68.0 °F 59.0 °F 73% 29.79 in 10.0 mi NNW 13.8 mph 19.6 mph N/A   Overcast
2:58 AM 66.7 °F 58.8 °F 76% 29.78 in 10.0 mi NW 6.9 mph - N/A   Mostly Cloudy
3:58 AM 64.4 °F 57.0 °F 77% 29.80 in 10.0 mi NW 6.9 mph - N/A   Scattered Clouds
4:58 AM 58.5 °F 55.8 °F 91% 29.82 in 10.0 mi WNW 5.8 mph - N/A   Clear
5:58 AM 56.1 °F 54.1 °F 93% 29.83 in 10.0 mi NW 6.9 mph - N/A   Clear
6:58 AM 60.8 °F 57.2 °F 88% 29.85 in 10.0 mi NW 9.2 mph - N/A   Clear
7:58 AM 64.4 °F 55.4 °F 73% 29.88 in 10.0 mi NW 11.5 mph 18.4 mph N/A   Clear
8:58 AM 66.2 °F 55.4 °F 68% 29.90 in 10.0 mi NNW 9.2 mph - N/A   Clear
9:58 AM 68.0 °F 55.4 °F 64% 29.90 in 10.0 mi North 12.7 mph - N/A   Partly Cloudy
10:58 AM 68.0 °F 53.6 °F 60% 29.94 in 10.0 mi NNW 15.0 mph 19.6 mph N/A   Scattered Clouds
11:58 AM 69.8 °F 53.6 °F 56% 29.94 in 10.0 mi NNW 13.8 mph 24.2 mph N/A   Scattered Clouds
12:58 PM 69.8 °F 55.4 °F 60% 29.96 in 10.0 mi NNW 12.7 mph 20.7 mph N/A   Scattered Clouds
1:58 PM 69.8 °F 55.4 °F 60% 29.96 in 10.0 mi NW 11.5 mph 16.1 mph N/A   Scattered Clouds
2:58 PM 69.8 °F 55.4 °F 60% 29.96 in 10.0 mi North 10.4 mph - N/A   Scattered Clouds
3:58 PM 71.6 °F 55.4 °F 57% 29.96 in 10.0 mi NNW 10.4 mph - N/A   Scattered Clouds
4:58 PM 71.6 °F 53.6 °F 53% 29.96 in 10.0 mi North 6.9 mph - N/A   Scattered Clouds
5:58 PM 71.6 °F 53.6 °F 53% 29.96 in 10.0 mi North 8.1 mph 16.1 mph N/A   Partly Cloudy
6:58 PM 69.8 °F 51.8 °F 53% 29.96 in 10.0 mi North 5.8 mph - N/A   Partly Cloudy
7:58 PM 66.2 °F 53.6 °F 64% 29.98 in 10.0 mi North 2.3 mph - N/A   Scattered Clouds
8:58 PM 57.2 °F 53.6 °F 88% 29.99 in 10.0 mi Calm Calm - N/A   Partly Cloudy
9:58 PM 51.8 °F 51.8 °F 100% 30.01 in 10.0 mi Calm Calm - N/A   Clear
10:58 PM 50.0 °F 50.0 °F 100% 30.02 in 10.0 mi Calm Calm - N/A   Clear
11:58 PM 47.7 °F 47.7 °F 100% 30.04 in 10.0 mi West 3.5 mph - N/A   Clear